TimeEDT,TemperatureF,Dew PointF,Humidity,Sea Level PressureIn,VisibilityMPH,Wind Direction,Wind SpeedMPH,Gust SpeedMPH,PrecipitationIn,Events,Conditions,WindDirDegrees,DateUTC
12:53 AM,60.1,55.9,86,30.07,7.0,Calm,Calm,-,N/A,,Overcast,0,2012-10-27 04:53:00
1:53 AM,60.1,55.9,86,30.05,7.0,Calm,Calm,-,N/A,,Overcast,0,2012-10-27 05:53:00
2:53 AM,60.1,55.9,86,30.03,8.0,ENE,3.5,-,N/A,,Overcast,70,2012-10-27 06:53:00
3:53 AM,59.0,55.9,90,30.02,8.0,East,3.5,-,N/A,,Overcast,80,2012-10-27 07:53:00
4:53 AM,59.0,55.0,87,30.01,9.0,Calm,Calm,-,N/A,,Overcast,0,2012-10-27 08:53:00
5:53 AM,59.0,55.0,87,30.00,10.0,East,3.5,-,N/A,,Overcast,80,2012-10-27 09:53:00
6:53 AM,59.0,55.0,87,30.00,10.0,East,3.5,-,N/A,,Overcast,80,2012-10-27 10:53:00
7:53 AM,59.0,54.0,83,30.01,10.0,ENE,3.5,-,N/A,,Overcast,70,2012-10-27 11:53:00
8:53 AM,59.0,54.0,83,30.01,10.0,ENE,3.5,-,N/A,,Overcast,70,2012-10-27 12:53:00
9:53 AM,60.1,53.1,78,30.01,8.0,ENE,4.6,-,N/A,,Overcast,70,2012-10-27 13:53:00
10:53 AM,60.1,53.1,78,30.02,8.0,East,9.2,-,N/A,,Overcast,100,2012-10-27 14:53:00
11:53 AM,61.0,54.0,78,30.00,5.0,ENE,6.9,-,N/A,,Haze,60,2012-10-27 15:53:00
12:03 PM,60.8,53.6,77,30.00,5.0,ENE,8.1,-,N/A,,Haze,70,2012-10-27 16:03:00
12:40 PM,62.6,53.6,72,29.98,6.0,ENE,6.9,-,N/A,,Haze,70,2012-10-27 16:40:00
12:53 PM,62.1,53.1,72,29.97,7.0,East,8.1,-,N/A,,Overcast,90,2012-10-27 16:53:00
1:48 PM,64.4,53.6,68,29.95,8.0,ENE,5.8,-,N/A,,Mostly Cloudy,70,2012-10-27 17:48:00
1:53 PM,64.0,54.0,70,29.95,7.0,ENE,6.9,-,N/A,,Mostly Cloudy,70,2012-10-27 17:53:00
2:53 PM,63.0,53.1,70,29.93,10.0,East,8.1,-,N/A,,Overcast,90,2012-10-27 18:53:00
3:53 PM,64.0,52.0,65,29.92,10.0,East,9.2,-,N/A,,Overcast,80,2012-10-27 19:53:00
4:53 PM,64.0,52.0,65,29.92,10.0,East,4.6,-,N/A,,Scattered Clouds,80,2012-10-27 20:53:00
5:53 PM,62.1,52.0,70,29.92,10.0,NE,5.8,-,N/A,,Mostly Cloudy,40,2012-10-27 21:53:00
6:53 PM,61.0,52.0,72,29.93,10.0,ENE,5.8,-,N/A,,Mostly Cloudy,70,2012-10-27 22:53:00
7:53 PM,59.0,51.1,75,29.92,10.0,ENE,5.8,-,N/A,,Clear,70,2012-10-27 23:53:00
8:53 PM,59.0,51.1,75,29.91,10.0,NNE,5.8,-,N/A,,Clear,30,2012-10-28 00:53:00
9:53 PM,57.9,51.1,78,29.91,10.0,NE,6.9,-,N/A,,Clear,40,2012-10-28 01:53:00
10:53 PM,57.0,51.1,81,29.91,9.0,NE,6.9,-,N/A,,Clear,40,2012-10-28 02:53:00
11:53 PM,57.0,51.1,81,29.90,9.0,ENE,5.8,-,N/A,,Clear,60,2012-10-28 03:53:00